Location: Brantley
(31.5822°N, 86.2569°W)
Time: 06:11:25
(UTC+00:00)

Courier 1B Rocket - Pass Details

Date: 22 February 2026
Orbit: 920 x 1201 km, 28.2° (Epoch: 9 March)

Event Time Altitude Azimuth Distance (km) Brightness Sun altitude
Rises 05:26:49 0° 266° (W) 3,632 - -67.4°
Reaches altitude 10° 05:30:18 10° 247° (WSW) 2,728 - -67.6°
Maximum altitude 05:34:32 18° 207° (SSW) 2,260 - -67.9°
Drops below altitude 10° 05:38:57 10° 167° (SSE) 2,852 - -68.1°
Sets 05:42:44 0° 149° (SSE) 3,865 - -68.3°
